www.pogodaiklimat.ru

Погода и климат >> Архив погоды >> Россия >> Краснодарский край >> Белая Глина


ПОГОДА в Белой Глине

  • Прогноз погоды в Белой Глине
  • Монитор погоды в Белой Глине

АРХИВ ПОГОДЫ в Белой Глине

Время (UTC), дата Ветер
(напр.,м/с)
 
Видим.   Явления Облачность Т
(С)
Тd
(С)
f
(%)
Тe
(С)
Тes
(С)
Комфортность P
(гПа)
Po
(гПа)
Тmin
(С)
Tmax
(С)
R
(мм)
R24
(мм)
S
(см)
03 17.02 З 3 10 км 10/10 600 м
[Sc]
+0.5 -2.0 83 -4 -4 1020.1 1011.4 +0.5 0.3
06 17.02 З 4 10 км 10/10 600 м
[Sc]
+0.8 -2.0 82 -4 -4 1019.9 1011.2 +0.4
09 17.02 З 8-13
{13}
4000 м дымка {ливн. осадки} 10/10 300 м
[Cb cap]
+2.7 +1.1 89 -4 -4 1017.9 1009.3
12 17.02 З 10-15
{16}
10 км {ливн. осадки} 10/10 600 м
[Sc]
+4.2 +0.7 78 -2 -2 1015.2 1006.7
15 17.02 З 8-15
{17}
10 км 9/9 600 м
[Sc]
+6.5 +2.4 75 +1 +1 1012.8 1004.3 +6.5
18 17.02 З 10-17
{20}
10 км 3/3 600 м
[Sc]
+6.2 +2.0 74 0 0 1011.5 1003.0
21 17.02 З 11-17
{20}
10 км 10/10 600 м
[Sc]
+7.2 +2.6 73 +2 +2 1010.0 1001.6
00 18.02 З 8-16
{19}
10 км 10/10 600 м
[Sc]
+7.0 +2.3 72 +2 +2 1009.7 1001.3
03 18.02 З 7-13
{17}
10 км 10/10 600 м
[Sc]
+4.8 +0.5 74 -1 -1 1009.7 1001.2 +4.8
06 18.02 З 6-11
{14}
10 км 10/10 600 м
[Sc]
+3.5 -1.7 69 -2 -2 1012.2 1003.7 +3.5
09 18.02 З 5
{12}
10 км 8/8 600 м
[Sc]
+5.2 -3.4 54 +1 +2 1013.1 1004.6
12 18.02 З 6-11
{13}
10 км 8/8 600 м
[Sc Ac lent]
+5.6 -8.2 36 +2 +2 1013.3 1004.8
15 18.02 СЗ 3
{13}
10 км 4/0
[Ac lent]
+3.0 -8.3 43 -0 -0 1015.6 1007.0 +6.5
18 18.02 СЗ 2 10 км ясно -0.7 -8.4 56 -4 -4 1018.9 1010.2
21 18.02 З 2 10 км 8/0
[Cs]
-1.7 -8.0 62 -5 -5 1020.4 1011.6
00 19.02 СЗ 2 10 км 8/0
[Ac trans Cs]
-1.6 -10.3 51 -5 -5 1021.9 1013.1
03 19.02 З 1 10 км ясно -5.6 -10.2 70 -8 -8 1023.5 1014.6 -6.0
06 19.02 СЗ 2 10 км ясно -2.9 -9.2 62 -7 -4 1025.8 1017.0 -7.1
09 19.02 СЗ 3 10 км 1/0
[Ci fib]
+0.9 -11.6 39 -3 +3 1027.0 1018.3
12 19.02 С 3 10 км 3/0
[Ci fib]
+2.6 -12.7 31 -0 +2 1026.9 1018.2
15 19.02 С 1 10 км ясно +0.7 -13.6 33 -0 -0 1027.7 1018.9 +2.7
18 19.02 штиль 0 10 км ясно -4.5 -12.8 52 -5 -5 1028.3 1019.3
21 19.02 В 1 10 км ясно -6.0 -12.8 59 -8 -8 1027.7 1018.7
00 20.02 СВ 1 10 км ясно -8.0 -11.4 76 -10 -10 1026.3 1017.3
03 20.02 штиль 0 10 км ясно -9.5 -12.4 79 -10 -10 1025.2 1016.1 -9.5
06 20.02 В 1 10 км ясно -4.8 -10.6 64 -7 -4 1024.2 1015.3 -10.0
09 20.02 ЮЗ 3 10 км ясно +6.8 -4.7 44 +4 +10 1022.1 1013.5
12 20.02 ЮЗ 5 10 км ясно +9.5 -6.2 32 +7 +9 1019.5 1011.0
15 20.02 Ю 2 10 км ясно +6.2 -7.2 38 +5 +5 1018.9 1010.4 +9.7
18 20.02 Ю 3 10 км ясно +2.4 -8.1 46 -1 -1 1018.8 1010.1
21 20.02 ЮЗ 1 10 км 9/0
[Ac trans]
+0.2 -6.8 59 -1 -1 1018.3 1009.5
00 21.02 Ю 1 10 км 3/0
[Ci fib]
-2.0 -7.1 68 -4 -4 1017.6 1008.8
03 21.02 Ю 3 10 км 4/0
[Ci sp]
+0.6 -2.3 81 -4 -4 1016.7 1008.0 -2.1
06 21.02 Ю 4 10 км 9/6 600 м
[Sc Ac trans]
+2.5 -1.5 75 -2 -2 1016.4 1007.8
09 21.02 ЮЗ 6-10
{10}
10 км 10/4 600 м
[Cb cap Ac lent]
+5.6 +1.5 75 +1 +1 1015.3 1006.8
12 21.02 ЮЗ 8-13
{13}
10 км 4/4 600 м
[Sc]
+8.1 -0.0 57 +4 +4 1013.6 1005.1
15 21.02 З 6-10
{15}
10 км 10/10 600 м
[Sc]
+7.6 -4.5 42 +4 +4 1013.5 1005.1 +8.6
18 21.02 З 7-13
{13}
10 км 10/10 600 м
[Sc]
+6.7 -3.5 48 +2 +2 1013.9 1005.4
21 21.02 ЮЗ 5
{14}
10 км 4/4 600 м
[Sc]
+3.8 -2.6 63 -1 -1 1014.1 1005.5
00 22.02 З 4
{10}
10 км 10/0
[Ac cast Cs]
+0.7 -6.6 58 -4 -4 1015.8 1007.1
03 22.02 З 3 10 км 10/3 600 м
[Sc Ac cast Cs]
-0.5 -8.4 55 -5 -5 1016.9 1008.2 -0.5
06 22.02 ЮЗ 3 10 км 10/10 600 м
[Sc]
+0.8 -6.7 57 -3 -3 1016.8 1008.1 -1.7
09 22.02 З 6-10
{12}
10 км 6/3 600 м
[Sc Ac cast]
+6.3 -8.5 34 +3 +4 1016.0 1007.4
12 22.02 З 4
{12}
10 км 10/10 600 м
[Sc]
+4.4 -3.0 59 +1 +1 1016.4 1007.8
15 22.02 СВ 2 10 км в посл. час ливневой дождь 10/6 300 м
[Cb cap Ac As]
+0.9 -1.9 82 -3 -3 1017.7 1009.0 +7.0 0.3
18 22.02 СВ 2 4000 м слаб. ливневой снег 10/10 300 м
[Cb cap]
-0.4 -0.9 96 -4 -4 1018.7 1010.0
21 22.02 СВ 2 4000 м в посл. час ливневой снег 10/6 300 м
[Cb cap Ac As]
-0.2 -0.6 97 -4 -4 1018.9 1010.1
00 23.02 СВ 2 н/о н/о -0.7 -1.1 97 -5 -5 1020.1 1011.3
03 23.02 СВ 3 4000 м дымка 10/10 600 м
[Sc]
-1.8 -2.3 96 -7 -7 1021.4 1012.6 -1.8 7 4
06 23.02 СВ 3 4000 м слаб. ливневой снег 10/10 300 м
[Cb cap]
-2.1 -2.8 95 -7 -7 1023.7 1014.8 -2.2
09 23.02 С 2 4000 м дымка {ливн. осадки} 10/6 300 м
[Cb cap Ac As]
-1.1 -2.4 91 -5 -4 1024.5 1015.7
12 23.02 СВ 2 20 км слаб. ливневой дождь [диам. гололёда 3 мм] 10/10 300 м
[Cb cap]
-2.0 -3.1 92 -6 -6 1025.4 1016.6
15 23.02 С 3 4000 м слаб. ливневой снег [диам. гололёда 3 мм] 10/10 300 м
[Cb cap]
-3.3 -4.0 95 -9 -9 1027.3 1018.4 -0.8 6
18 23.02 С 2 4000 м слаб. ливневой снег [диам. гололёда 3 мм] 10/10 300 м
[Cb cap]
-4.2 -5.0 94 -9 -9 1028.8 1019.9
21 23.02 С 3 4000 м дымка {ливн. осадки} 10/6 300 м
[Cb cap Ac As]
-5.0 -6.0 93 -11 -11 1029.8 1020.8
00 24.02 СВ 2 4000 м дымка {ливн. осадки} [диам. гололёда 3 мм] 10/10 600 м
[Sc]
-5.0 -6.0 93 -9 -9 1029.9 1020.9

 

Местоположение метеостанции Белая Глина (Краснодарский край, Россия): широта 46.08 долгота 40.88 высота над уровнем моря 69 м.

В архиве по умолчанию представлена погода в Белой Глине за последнюю неделю. Архивные данные за месяц целиком и за предыдущие месяцы, начиная с января 2011 года, Вы можете получить, выбрав интересующий диапазон дат из раскрывающегося списка и нажав кнопку "Ввод!".


*Определитесь, кто Вы:
робот инопланетянин человек

Внимание! Время в таблицах - всемирное. Для получения местного времени необходимо прибавить поправку, которая равна 3 ч.

Смотрите также архив погоды в соседних городах и на ближайших метеорологических станциях:

Погода в Красногвардейском (Ставропольский край, Россия) (54 км)
Погода в Гиганте (Ростовская область, Россия) (61 км)
Погода в Тихорецке (Краснодарский край, Россия) (67 км)
Погода в Новоалександровске (Ставропольский край, Россия) (69 км)
Погода в Кропоткине (Краснодарский край, Россия) (76 км)
Погода в Сосыке (Краснодарский край, Россия) (81 км)
Погода в Городовиковске (Калмыкия, Россия) (84 км)
Погода в Зерноград (Ростовская область, Россия) (96 км)
Погода в Изобильном (Ставропольский край, Россия) (101 км)
Погода в Кущевской (Краснодарский край, Россия) (109 км)

Пояснения к столбцам:

Ветер - указаны скорость ветра в м/с - средняя за 10 мин, порывы в срок и между сроками (в фигурных скобках) и направление, откуда дует ветер: С - северный, СВ - северо-восточный, В - восточный, ЮВ - юго-восточный, Ю - южный, ЮЗ - юго-западный, З - западный, СЗ - северо-западный.
Видимость - горизонтальная дальность видимости в метрах или километрах. При видимости от 1 до 10 км при отсутствии осадков обычно наблюдается дымка, при ухудшении видимости до 1 км и менее - туман. В сухую погоду видимость может ухудшаться дымом, пылью или мглою.
Явления - указаны атмосферные явления, наблюдавшиеся в срок или в последний час перед сроком; фигурными скобками обозначены явления, наблюдавшиеся между сроками (за 1-3 часа до срока); квадратными скобками обозначены град или гололедные отложения с указанием их диаметра в мм.
Облачность - указаны через наклонную черту общая и нижняя облачность в баллах и высота нижней границы облаков в метрах; квадратными скобками обозначены формы облаков: Ci - перистые, Cs - перисто-слоистые, Cc - перисто-кучевые, Ac - высококучевые, As - высокослоистые, Sc - слоисто-кучевые, Ns - слоисто-дождевые, Cu - кучевые, Cb - кучево-дождевые. Подробнее классификацию облаков см. в Атласе облаков (PDF).
T - Температура воздуха - температура, измеренная на высоте 2 м над землей.
Td - Температура точки росы - температура, при понижении до которой содержащийся в воздухе водяной пар достигнет насыщения.
f - Относительная влажность воздуха - влажноcть воздуха, измеренная на высоте 2 м над землей.
Te - Эффективная температура - температура, которую ощущает одетый по сезону человек в тени. Характеристика душности погоды. При расчете учитывается влияние влажности воздуха и скорости ветра на теплоощущения человека.
Tes - Эффективная температура на солнце - температура, которую ощущает человек, с поправкой на солнечный нагрев. Характеристика знойности погоды. Зависит от высоты солнца над горизонтом, облачности и скорости ветра. Ночью, в пасмурную погоду, а также при ветре 12 м/с и более поправка равна нулю.
P - Атмосферное давление - приведенное к уровню моря атмосферное давление.
Po - Атмосферное давление - измеренное на уровне метеостанции атмосферное давление.
Tmin - Минимальная температура - минимум температуры воздуха на высоте 2 м над землей.
Tmax - Максимальная температура - максимум температуры воздуха на высоте 2 м над землей.
R - Количество осадков - Количество выпавших осадков за период времени, мм. При наведении курсора мыши на число - период времени, за который выпало указанное количество осадков.
R24 - Количество осадков - Количество выпавших осадков за 24 часа, мм.
S - Снежный покров - Высота снежного покрова, см. При наведении курсора мыши на число - состояние снежного покрова и степень покрытия местности в баллах.